Location: Bayton
(52.3500°N, 2.4500°W)
Time: 21:07:23
(UTC+00:00)

Daily predictions for brighter satellites

Satellite Brightness Start Highest point End
(mag) Time Altitude Azimuth Time Altitude Azimuth Time Altitude Azimuth
Cosmos 1634 Rocket 4.4 16:25:32 10° NNW 16:31:42 72° W 16:37:51 10° S
USA 229 DEB 4.5 16:27:25 10° NW 16:33:49 37° NNE 16:40:32 10° E
USA 229 4.5 16:27:31 10° NW 16:33:55 37° NNE 16:40:37 10° E
USA 267 3.3 16:27:52 10° ESE 16:34:27 89° NNE 16:41:02 10° WNW
Cosmos 2333 4.3 16:30:12 10° SSW 16:35:58 88° ESE 16:41:47 10° NNE
CZ-4B R/B 3.2 16:30:38 10° SSE 16:35:59 84° ENE 16:41:29 10° NNW
Cosmos 1992 Rocket 4.0 16:31:54 10° NNW 16:37:08 65° ENE 16:42:20 10° SE
NOSS 3-4 (A) 3.6 16:33:20 10° SW 16:39:25 84° NW 16:46:01 10° NE
NOSS 3-4 (C) 3.6 16:33:27 10° SW 16:39:31 84° NW 16:46:07 10° NE
YAOGAN 1 4.4 16:39:00 10° ENE 16:40:24 11° NE 16:41:47 10° NNE
Cosmos 1536 3.5 16:37:23 10° N 16:41:05 33° ENE 16:44:44 10° SE
Cosmos 2322 3.9 16:35:23 10° SW 16:41:06 77° WNW 16:46:51 10° NNE
Cosmos 2278 Rocket 2.3 16:35:27 10° NNW 16:41:10 90° WSW 16:46:50 10° SSE
Feng Yun 1-1 Rocket 4.5 16:36:28 10° SE 16:41:34 45° ENE 16:46:42 10° N
Cosmos 1733 Rocket 3.1 16:40:23 10° N 16:44:45 63° ENE 16:49:07 10° SSE
Cosmos 2360 Rocket 3.0 16:39:43 10° SW 16:45:13 49° NW 16:50:45 10° NNE
Lacrosse 5 rocket 1.7 16:47:31 10° SW 16:51:45 58° SE 16:55:35 11° ENE
Cosmos 2369 Rocket 3.4 16:47:37 10° NNW 16:51:59 22° NE 16:56:21 10° E
Cosmos 1980 Rocket 4.2 16:49:26 10° WNW 16:52:55 16° NNW 16:56:26 10° NNE
AQUARIUS 4.5 16:51:13 10° SE 16:55:29 45° ENE 16:59:47 10° N
SMAP 3.2 16:51:41 10° SE 16:56:11 50° ENE 17:00:42 10° N
NOAA 6 4.4 16:52:18 10° S 16:57:25 70° WSW 17:02:33 10° NNW
SL-4 R/B 2.0 16:53:46 10° WSW 16:57:26 69° SSE 17:01:17 11° E
Cosmos 921 Rocket 3.7 16:53:52 10° N 16:57:42 31° ENE 17:01:35 10° ESE
Cosmos 1743 4.2 16:55:10 10° NNE 16:57:50 17° ENE 17:00:30 10° ESE
YAOGAN 6 4.1 16:55:37 10° E 16:57:56 16° ENE 17:00:16 10° NNE
SJ-7 4.4 16:54:44 10° SSE 16:58:54 85° ENE 17:03:03 10° NNW
Cosmos 2344 4.4 16:52:42 10° WNW 17:00:45 47° NNE 17:11:22 10° E
SL-16 R/B 3.6 16:57:18 10° SE 17:01:13 19° E 17:04:30 12° ENE
IRS-1C Rocket 4.1 16:56:50 10° SSE 17:02:02 65° ENE 17:07:16 10° NNW
Cosmos 1867 3.9 16:58:37 10° NW 17:03:55 47° NE 17:09:10 10° ESE
Meteor 2-6 Rocket 4.1 16:58:41 10° S 17:04:04 87° ESE 17:09:36 10° NNE
Aureole 1 Rocket 4.0 17:02:58 10° SE 17:05:03 17° E 17:06:13 14° ENE
ALOS 3.5 17:02:41 10° S 17:07:09 45° W 17:11:40 10° NNW
NOSS 0 Rocket 4.1 17:02:15 10° SSW 17:08:20 60° ESE 17:14:30 10° NE
Cosmos 1782 4.2 17:04:51 10° SW 17:08:36 39° WNW 17:12:21 10° N
Cosmos 2237 Rocket 2.5 17:04:16 10° S 17:09:44 50° ESE 17:15:04 11° NE
CORIOLIS 4.2 17:04:52 10° SSE 17:10:13 61° ENE 17:15:36 10° N
Cosmos 2333 Rocket 2.5 17:07:22 10° SW 17:13:07 73° NW 17:18:56 10° NNE
ATLAS 5 CENTAUR R/B 2.7 17:12:02 10° SSE 17:13:21 14° SE 17:13:52 14° ESE
Cosmos 1812 2.7 17:09:33 10° S 17:13:22 66° E 17:17:14 10° NNE
Cosmos 2322 Rocket 3.9 17:09:16 10° W 17:13:48 24° NW 17:18:21 10° NNE
CZ-4 R/B 2.5 17:11:32 10° ESE 17:14:28 21° ENE 17:17:23 10° NNE
ATLAS 2AS CENTAUR R/B 3.5 17:09:31 10° WSW 17:17:26 57° NNW 17:24:34 13° NE
SeaSat 1 4.1 17:16:08 13° NE 17:17:34 15° NNE 17:20:20 10° N
Cosmos 1782 Rocket 4.1 17:13:53 10° N 17:17:54 34° ENE 17:21:51 10° SE
Cosmos 1500 3.5 17:14:16 10° NNW 17:18:02 67° W 17:21:45 10° S
Cosmos 292 Rocket 3.7 17:13:29 10° NNW 17:18:24 82° ENE 17:23:16 10° SSE
Cosmos 2219 Rocket 2.5 17:13:40 10° SW 17:19:16 68° NW 17:24:57 10° NNE
Cosmos 1315 Rocket 4.2 17:16:45 10° SW 17:20:31 38° WNW 17:24:21 10° N
Lacrosse 4 Rocket 3.5 17:19:14 10° N 17:20:43 12° NNE 17:21:30 11° NNE
Cosmos 1943 Rocket 2.8 17:17:34 10° NNW 17:22:42 33° NE 17:27:45 10° ESE
SL-16 R/B 4.1 17:19:36 10° W 17:23:48 21° NNW 17:28:01 10° NNE
ISS -0.3 17:25:09 10° WSW 17:26:06 11° SW 17:27:02 10° SSW
STARLINK-67 2.5 17:23:34 10° W 17:26:20 75° N 17:27:38 27° E
Okean 2 Rocket 4.2 17:22:53 10° NNE 17:26:28 23° ENE 17:30:02 10° ESE
Sich 1 Rocket 4.1 17:24:34 10° N 17:28:37 34° ENE 17:32:38 10° SE
Cosmos 1862 Rocket 3.5 17:24:46 10° S 17:29:09 88° E 17:33:36 10° N
Cosmos 1703 Rocket 4.0 17:28:30 10° SSE 17:32:41 40° E 17:36:21 13° NNE
Cosmos 1975 3.7 17:30:08 10° N 17:33:32 26° ENE 17:36:55 10° SE
PSLV R/B 3.9 17:30:29 10° NNE 17:34:40 88° ESE 17:38:48 10° SSW
STARLINK-46 2.3 17:35:58 10° W 17:38:37 85° NNW 17:39:21 44° ENE
CSL-04 Rocket 4.1 17:34:43 10° SE 17:39:32 37° ENE 17:44:25 10° N
STARLINK-60 3.9 17:37:08 10° SW 17:40:18 39° SSE 17:41:33 27° ESE
STARLINK-29 4.4 17:37:24 10° SSW 17:40:33 30° SSE 17:41:45 24° ESE
USA 215 3.3 17:36:17 19° ENE 17:41:14 74° SSE 17:47:46 10° SW
Cosmos 1980 3.7 17:35:36 10° SSW 17:41:16 85° ESE 17:46:04 15° NNE
Cosmos 1441 Rocket 3.0 17:38:53 10° N 17:42:44 71° ENE 17:46:29 10° SSE
Okean O Rocket 3.9 17:39:50 10° SSW 17:43:29 26° W 17:47:11 10° NW
H-2A R/B 3.2 17:42:06 10° S 17:45:44 61° WSW 17:49:25 10° NNW
Cosmos 2297 3.7 17:41:46 10° NNW 17:47:32 86° WSW 17:53:12 10° SSE
Cosmos 1689 Rocket 4.5 17:45:18 10° NNW 17:47:47 23° WNW 17:50:14 10° WSW
Cosmos 614 Rocket 4.4 17:45:01 10° S 17:49:43 39° ESE 17:51:51 26° ENE
COBE Rocket 3.7 17:46:11 10° NNE 17:50:52 86° ESE 17:55:34 10° SSW
Meteor 1-27 Rocket 4.0 17:45:17 10° SSW 17:51:04 75° WNW 17:57:01 10° N
Cosmos 2242 Rocket 3.6 17:46:40 10° S 17:51:15 87° W 17:55:52 10° N
Cosmos 1092 Rocket 3.9 17:47:44 10° S 17:54:01 76° E 18:00:17 10° NNE
Exosat Rocket 3.7 17:49:04 10° SW 17:54:09 72° WNW 17:58:28 15° NNE
Cosmos 1174 4.5 17:51:50 10° S 17:56:18 39° ESE 17:57:14 34° E
CSL-04 Debris 4.3 17:53:19 10° SE 17:58:34 52° ENE 18:03:50 10° N
CZ-4B R/B 4.3 17:56:35 10° NNW 17:58:38 15° WNW 18:00:40 10° W
Cosmos 1908 Rocket 4.2 17:56:35 10° NNW 18:00:56 58° W 18:05:12 10° S
COSMOS 2455 4.5 17:56:23 10° WNW 18:01:04 23° NNW 18:04:29 15° NNE
Cosmos 1666 3.5 17:58:29 10° NNW 18:02:08 51° W 18:05:45 10° S
Okean-O 2.9 18:00:41 10° S 18:05:06 69° WSW 18:09:33 10° NNW
COSMOS 2428 3.9 18:00:58 10° WSW 18:06:16 38° NW 18:10:56 13° NNE
COSMO-SKYMED 1 2.7 18:06:07 38° NE 18:07:16 48° E 18:11:29 10° S
BREEZE-M R/B 3.3 18:02:12 10° W 18:07:26 53° SSW 18:08:35 35° SE
Cosmos 2251 Rocket 4.2 18:02:21 10° SW 18:07:31 52° WNW 18:12:02 14° NNE
RESURS DK-1 4.0 18:03:57 10° WSW 18:07:34 28° NW 18:10:10 16° N
Envisat 3.2 18:05:27 10° S 18:10:32 72° WSW 18:15:38 10° NNW
CZ-4 R/B 4.3 18:06:34 10° SSE 18:10:44 78° ENE 18:14:55 10° NNW
Okean 1-7 2.9 18:06:49 10° S 18:11:10 77° E 18:13:53 23° NNE
Cosmos 1140 Rocket 3.8 18:06:48 10° S 18:11:34 40° ESE 18:12:14 38° E
Meteor 2-9 Rocket 4.2 18:09:37 10° N 18:15:28 62° ENE 18:21:13 10° SSE
YAOGAN 1 2.4 18:11:24 10° SSE 18:15:41 65° ENE 18:19:59 10° N
NOSS 3-1 (C) 4.0 18:09:00 10° NW 18:16:03 63° NE 18:20:52 26° ESE
USA 267 4.5 18:11:50 10° SSE 18:17:55 40° SW 18:24:02 10° WNW
Meteor 1-18 Rocket 4.2 18:13:59 10° S 18:19:34 62° E 18:23:06 23° NNE
Cosmos 407 Rocket 3.4 18:15:09 10° S 18:20:18 65° ESE 18:22:12 38° NE
NOAA 11 4.1 18:18:00 10° SSE 18:23:22 62° ENE 18:28:49 10° N
S3M 3.9 18:17:33 10° N 18:23:45 63° ENE 18:29:51 10° SSE
USA 229 DEB 3.8 18:18:49 10° NW 18:25:57 69° NE 18:29:44 31° ESE
USA 229 3.8 18:18:55 10° NW 18:26:02 69° NE 18:29:46 32° ESE
H-2A R/B 4.2 18:31:57 11° N 18:31:57 11° N 18:32:04 10° N
Uosat 12 SS-18 rocket 4.1 18:23:34 10° NW 18:28:37 89° NE 18:29:53 47° SE
Cosmos 2360 Rocket 4.3 18:26:57 10° WNW 18:30:39 17° NNW 18:33:57 11° NNE
Lacrosse 5 rocket 1.6 18:26:55 10° W 18:31:01 52° NNW 18:31:14 51° N
YAOGAN 6 3.3 18:27:34 10° S 18:31:04 54° W 18:34:38 10° NNW
NOSS 3-4 (A) 4.5 18:25:24 10° W 18:31:10 37° NNW 18:34:05 26° NNE
NOSS 3-4 (C) 4.5 18:25:30 10° W 18:31:15 37° NNW 18:34:10 26° NNE
NOSS 3-1 (A) 4.0 18:24:17 10° NW 18:31:16 58° NNE 18:34:15 38° E
Cosmos 1428 Rocket 4.4 18:25:08 10° S 18:31:20 88° E 18:37:39 10° N
SKYMED 3 4.4 18:30:31 54° NNE 18:31:28 81° ESE 18:35:49 10° SSW
CZ-4C R/B 4.2 18:28:03 10° SSE 18:28:04 10° SSE 18:28:04 10° SSE
Cosmos 1743 3.4 18:30:10 10° NNW 18:33:57 53° W 18:37:44 10° S
Cosmos 1553 Rocket 4.0 18:29:13 10° N 18:35:37 88° W 18:42:03 10° S
Cosmos 2369 Rocket 2.0 18:31:18 10° NNW 18:36:57 76° ENE 18:39:07 39° SE
SL-4 R/B 1.9 18:33:09 10° W 18:36:53 76° SSW 18:36:53 76° SSW
Cosmos 1980 Rocket 4.4 18:37:33 10° NNW 18:39:34 12° N 18:40:06 12° N
FALCON 9 DEB 4.1 18:37:21 10° WSW 18:39:55 44° SW 18:39:55 44° SW
Okean 1 3.4 18:37:07 10° SSW 18:41:06 75° WNW 18:41:13 74° WNW
SL-16 R/B 2.1 18:38:53 10° SSW 18:44:36 87° WNW 18:46:25 46° NNE
Cosmos 1656 Rocket 4.1 18:42:12 10° NNW 18:46:29 42° NNE 18:46:29 42° NNE
Cosmos 1867 4.4 18:42:20 10° NW 18:47:35 48° WSW 18:52:46 10° SSE
Aureole 1 Rocket 4.0 18:46:17 10° WSW 18:48:53 32° WNW 18:48:53 32° WNW
CZ-4 R/B 2.3 18:45:31 10° S 18:49:16 46° W 18:53:00 10° NNW
Cosmos 2026 Rocket 4.3 18:44:57 10° SSW 18:50:58 63° WNW 18:57:01 10° N
Ariane Rocket 3.6 18:55:13 42° N 18:55:13 42° N 18:58:38 10° NNW
Cosmos 2237 Rocket 3.3 18:48:40 10° WSW 18:53:59 39° NW 18:56:55 23° N
SeaSat 1 3.6 18:55:55 31° N 18:55:55 31° N 18:58:49 10° NNW
SKYMED 2 4.0 18:54:47 53° NNW 18:55:26 62° WNW 18:59:44 10° SSW
Cosmos 2333 Rocket 4.1 18:53:56 10° W 18:58:25 23° NNW 19:01:21 16° N
Cosmos 2322 Rocket 4.4 18:57:54 10° NNW 19:00:05 12° N 19:01:20 11° N
Lacrosse 4 Rocket 3.7 18:56:58 10° NNW 18:57:49 15° NNW 18:57:49 15° NNW
Cosmos 2219 Rocket 4.2 19:00:07 10° W 19:04:19 21° NNW 19:06:57 16° N
Okean 2 Rocket 3.9 19:00:30 10° NNW 19:04:51 51° W 19:09:13 10° S
Cosmos 2315 Rocket 4.2 19:00:02 10° N 19:05:07 53° NNE 19:05:07 53° NNE
Cosmos 1943 Rocket 2.6 19:01:15 10° NW 19:06:50 61° WSW 19:09:31 30° S
Meteor 2-4 Rocket 4.1 19:02:24 10° S 19:06:55 54° SSE 19:06:55 54° SSE
Cosmos 2221 Rocket 4.5 19:05:29 10° SSW 19:08:41 44° SW 19:08:41 44° SW
ATLAS 2AS CENTAUR R/B 3.8 19:02:41 10° WNW 19:10:01 37° N 19:12:00 32° NNE
Cosmos 1975 4.4 19:06:26 10° NNW 19:10:05 35° W 19:13:44 10° SSW
SL-16 R/B 4.5 19:08:19 10° NNW 19:10:18 12° N 19:10:54 12° N
Meteor 1-19 Rocket 4.2 19:07:09 10° SSW 19:12:38 73° WNW 19:13:29 61° NNW
Cosmos 883 Rocket 4.4 19:07:30 10° N 19:13:54 86° E 19:15:00 64° SSE
Cosmos 1190 Rocket 4.4 19:10:48 10° SW 19:15:55 58° WNW 19:16:21 56° NW
Cosmos 2344 4.2 19:07:23 10° NW 19:16:37 87° NE 19:22:30 37° SE
Cosmos 676 Rocket 4.5 19:12:58 10° SSW 19:16:57 54° SW 19:16:57 54° SW
Lacrosse 5 4.1 19:19:35 10° SSW 19:20:27 14° S 19:20:27 14° S
USA 215 3.3 19:23:38 63° NNE 19:24:15 66° NNW 19:30:43 10° W
Cosmos 1655 Rocket 4.4 19:28:58 10° SSW 19:35:12 61° WNW 19:38:08 32° N
Cosmos 2369 Rocket 4.2 20:16:08 10° NW 20:20:26 23° WSW 20:21:00 22° WSW
NOSS 3-1 (A) 4.5 20:15:14 10° NW 20:21:43 56° WSW 20:21:43 56° WSW
SL-16 R/B 4.2 20:24:53 10° W 20:28:20 23° NW 20:28:20 23° NW
ATLAS 2AS CENTAUR R/B 4.4 20:55:19 10° NW 20:59:26 29° NNW 20:59:26 29° NNW
